sat.trackr.live / text

‹ back to catalog

STARLINK-4781

NORAD 53861 · 2022-114AV

PAYLOAD ACTIVE UNKNOWN

§ Identity

Operator
Country
US
Launch date
2022-09-19
Launch site
AFETR
Launch vehicle
Mass (kg)
RCS (m²)

Purposes: comms

External: N2YO · Heavens-Above · Gunter

§ Orbital elements

Epoch: 2026-09-20T07:43:52.159872Z

Period
94.01 min
Inclination
53.1587°
Eccentricity
0.0001234
Mean motion
15.31698848 rev/d
Perigee alt
469.9 km
Apogee alt
471.6 km
Semi-major
6,848.9 km
B*
4.1195e-5
RAAN
118.5972°
Arg perigee
90.0224°
Mean anomaly
270.0919°
Rev number
22,265

§ Raw data

STARLINK-47811 53861U 22114AV  26263.32213148  .00000913  00000+0  41195-4 0  99922 53861  53.1587 118.5972 0001234  90.0224 270.0919 15.31698848222652

JSON: /api/v1/satellites/53861 · /tle

For live sub-satellite position, see the globe view (requires WebGL).

§ Visibility from observer

Set your observer location to see the next 7 days of passes ≥ 10°. The values pass through the URL so the page stays shareable.

No JS? Fill the form by hand. The geolocation button needs JavaScript.